Location: Bretagne
(43.8474°N, 0.4650°W)
Time: 19:01:11
(UTC+00:00)

Cosmos 1666 Rocket - Pass Details

Date: 15 January 2026
Orbit: 598 x 625 km, 82.5° (Epoch: 13 February)

Event Time Altitude Azimuth Distance (km) Brightness Sun altitude
Rises 17:31:04 0° 350° (N) 2,917 6.9 -7.5°
Reaches altitude 10° 17:33:18 10° 349° (NNW) 2,007 6.1 -7.9°
Maximum altitude 17:37:45 77° 265° (W) 647 3.8 -8.6°
Drops below altitude 10° 17:42:10 10° 178° (S) 1,990 6.4 -9.4°
Sets 17:44:23 0° 177° (S) 2,890 7.2 -9.8°
